Hourly Data Report for August 04, 2017

QUALICUM BEACH AIRPORT
BRITISH COLUMBIA

49°20'14.000" N
124°23'38.000" W
58.20 m
1026562
71766
VOQ

Download Data

Hourly Data (August 2017)
Hourly Data Report for August 4, 2017
TIME
LST
Temp Definition
°C
Dew Point Definition
°C
Rel Hum Definition
%
Precip. Amount Definition
mm

Wind Dir Definition
10's deg

Wind Spd Definition
km/h
Visibility Definition
km
Stn Press Definition
kPa
Hmdx Definition


Wind Chill Definition


Weather Definition


00:00 17.8 11.6 67 0.0 20 3   100.55     LegendNANA
01:00 17.2 11.1 68 0.0 29 2   100.55     LegendNANA
02:00 15.1 11.5 79 0.0 21 1   100.57     LegendNANA
03:00 15.0 11.2 78 0.0 25 2   100.57     LegendNANA
04:00 14.5 11.1 80 0.0 27 3   100.56     LegendNANA
05:00 13.8 10.9 83 0.0 29 2   100.60     LegendNANA
06:00 16.6 10.7 68 0.0 30 6   100.60     LegendNANA
07:00 19.8 11.5 59 0.0 31 3   100.62     LegendNANA
08:00 20.8 11.6 56 0.0 32 7   100.64     LegendNANA
09:00 21.1 12.2 57 0.0 31 12   100.64     LegendNANA
10:00 21.8 12.4 55 0.0 34 11   100.61     LegendNANA
11:00 22.2 13.5 58 0.0 34 11   100.60 25   LegendNANA
12:00 22.2 13.0 56 0.0 34 10   100.56 25   LegendNANA
13:00 23.6 13.2 52 0.0 32 8   100.50 27   LegendNANA
14:00 26.6 11.7 40 0.0 29 6   100.45 29   LegendNANA
15:00 27.0 11.9 39 0.0 29 8   100.39 29   LegendNANA
16:00 27.1 10.9 36 0.0 30 11   100.36 29   LegendNANA
17:00 27.8 10.0 33 0.0 30 10   100.31 29   LegendNANA
18:00 27.8 10.1 33 0.0 31 8   100.27 29   LegendNANA
19:00 25.1 12.4 45 0.0 26 3   100.25 28   LegendNANA
20:00 22.4 12.3 53 0.0 31 1   100.26 25   LegendNANA
21:00 20.8 12.3 58 0.0 0 1   100.29     LegendNANA
22:00 18.9 12.8 68 0.0   0   100.31     LegendNANA
23:00 17.6 12.6 73 0.0 23 1   100.34     LegendNANA

Notes on Data Quality.

Legend

  • E = Estimated
  • M = Missing
  • NA = Not Available*
  • [empty] = Indicates an unobserved value
Date modified: